Rogers, AR

10:47 AM CDT on July 23, 2017 (GMT -0500)
Rogers Municipal-Carter

Weather History for KROG - May, 2014

Change the Weather History Date:

Saturday, May 3, 2014

  Actual Average Record
Temperature  
Mean Temperature 64 °F -  
Max Temperature 81 °F 70 °F 82 °F (2012)
Min Temperature 46 °F 51 °F 33 °F (2011)
Degree Days  
Heating Degree Days 2    
Growing Degree Days 14 (Base 50)    
Moisture  
Dew Point 39 °F    
Average Humidity 42    
Maximum Humidity 68    
Minimum Humidity 23    
Precipitation  
Precipitation 0.00 in - - ()
Sea Level Pressure  
Sea Level Pressure 29.97 in    
Wind  
Wind Speed 8 mph (SSW)    
Max Wind Speed 15 mph    
Max Gust Speed 20 mph    
Visibility 10 miles    
Events      
Averages and records for this station are not official NWS values.
T = Trace of Precipitation, MM = Missing Value Source: NWS Daily Summary

Daily Weather History Graph

Daily Weather History Graph

Search for Another Location

Airport or City:

Trip Planner

Search our weather history database for the weather conditions in past years. The results will help you decide how hot, cold, wet, or windy it might be!

Date:

Astronomy

May. 03, 2014 Rise Set
Actual Time 6:21 AM CDT 8:06 PM CDT
Civil Twilight 5:53 AM CDT 8:33 PM CDT
Nautical Twilight 5:19 AM CDT 9:07 PM CDT
Astronomical Twilight 4:44 AM CDT 9:43 PM CDT
Moon 9:52 AM CDT (5/3) No Moon Set
Length of Visible Light 14h 40m
Length of Day
13h 45m
Waxing Crescent, 20% of the Moon is Illuminated
May 3
Waxing Crescent
May 6
First Quarter
May 14
Full
May 21
Last Quarter
May 28
New

Hourly Weather History & Observations

Time (CDT) Temp. Dew Point Humidity Pressure Visibility Wind Dir Wind Speed Gust Speed Precip Events Conditions
12:57 AM 50.0 °F 36.0 °F 59% 29.96 in 10.0 mi SSE 4.6 mph - N/A   Clear
1:57 AM 46.9 °F 37.0 °F 68% 29.94 in 10.0 mi South 6.9 mph - N/A   Clear
2:57 AM 46.9 °F 36.0 °F 66% 29.94 in 10.0 mi South 5.8 mph - N/A   Clear
3:57 AM 48.9 °F 35.1 °F 59% 29.94 in 10.0 mi SSE 4.6 mph - N/A   Clear
4:57 AM 48.0 °F 36.0 °F 63% 29.95 in 10.0 mi South 9.2 mph - N/A   Clear
5:57 AM 48.9 °F 35.1 °F 59% 29.96 in 10.0 mi South 6.9 mph - N/A   Clear
6:57 AM 50.0 °F 36.0 °F 59% 29.98 in 10.0 mi South 5.8 mph - N/A   Clear
7:57 AM 57.9 °F 39.0 °F 49% 29.99 in 10.0 mi SSW 5.8 mph - N/A   Clear
8:57 AM 63.0 °F 36.0 °F 37% 29.99 in 10.0 mi SW 11.5 mph - N/A   Clear
9:57 AM 66.9 °F 39.0 °F 36% 30.00 in 10.0 mi SW 11.5 mph - N/A   Clear
10:57 AM 70.0 °F 37.9 °F 31% 30.00 in 10.0 mi WSW 11.5 mph 19.6 mph N/A   Clear
12:57 PM 75.9 °F 37.9 °F 25% 29.98 in 10.0 mi WSW 15.0 mph - N/A   Clear
1:57 PM 78.1 °F 39.0 °F 25% 29.98 in 10.0 mi WSW 11.5 mph 18.4 mph N/A   Clear
2:57 PM 80.1 °F 39.0 °F 23% 29.96 in 10.0 mi SW 11.5 mph 18.4 mph N/A   Clear
3:57 PM 81.0 °F 41.0 °F 24% 29.95 in 10.0 mi SW 12.7 mph - N/A   Clear
4:57 PM 80.1 °F 41.0 °F 25% 29.96 in 10.0 mi SSW 10.4 mph - N/A   Clear
5:57 PM 80.1 °F 41.0 °F 25% 29.95 in 10.0 mi SW 12.7 mph 16.1 mph N/A   Clear
6:57 PM 78.1 °F 41.0 °F 27% 29.96 in 10.0 mi SW 9.2 mph - N/A   Clear
7:57 PM 73.9 °F 39.9 °F 29% 29.96 in 10.0 mi SSW 6.9 mph - N/A   Clear
8:57 PM 66.9 °F 44.1 °F 44% 29.96 in 10.0 mi South 8.1 mph - N/A   Clear
9:57 PM 66.0 °F 43.0 °F 43% 29.97 in 10.0 mi South 10.4 mph - N/A   Clear
10:57 PM 64.9 °F 43.0 °F 45% 29.97 in 10.0 mi South 8.1 mph - N/A   Clear
11:57 PM 64.0 °F 43.0 °F 46% 29.96 in 10.0 mi South 11.5 mph - N/A   Clear